• In Moldova, Republic
  • List of Countries
  • For 7 days
  • Water Temperature
  • Satellite Maps
  • Weather Map
  • Weather Widgets
  • user-avatar
    Login

    Hourly Weather Durres

    Today, 24 March, Friday

    Time Temperature Precipitation Wind Pressure Humidity
    00:00 +13°C° 0 mm 0 mps 763 mmHg 84%
    01:00 +13°C° 0 mm 0 mps 763 mmHg 83%
    02:00 +13°C° 0 mm 1 mps 763 mmHg 82%
    03:00 +13°C° 0 mm 1 mps 763 mmHg 82%
    04:00 +13°C° 0 mm 1 mps 763 mmHg 82%
    05:00 +14°C° 0 mm 1 mps 763 mmHg 77%
    06:00 +16°C° 0 mm 1 mps 764 mmHg 73%
    07:00 +18°C° 0 mm 1 mps 764 mmHg 68%
    08:00 +20°C° 0 mm 1 mps 764 mmHg 60%
    09:00 +23°C° 0 mm 2 mps 764 mmHg 52%
    10:00 +25°C° 0 mm 2 mps 764 mmHg 44%
    11:00 +26°C° 0 mm 2 mps 764 mmHg 42%
    12:00 +26°C° 0 mm 3 mps 764 mmHg 40%
    13:00 +27°C° 0 mm 4 mps 764 mmHg 38%
    14:00 +26°C° 0 mm 4 mps 764 mmHg 41%
    15:00 +25°C° 0 mm 4 mps 763 mmHg 43%
    16:00 +23°C° 0 mm 4 mps 763 mmHg 45%
    17:00 +21°C° 0 mm 4 mps 763 mmHg 53%
    18:00 +19°C° 0 mm 3 mps 763 mmHg 61%
    19:00 +16°C° 0 mm 3 mps 763 mmHg 69%
    20:00 +16°C° 0 mm 3 mps 763 mmHg 69%
    21:00 +15°C° 0 mm 2 mps 764 mmHg 69%
    22:00 +15°C° 0 mm 2 mps 764 mmHg 69%
    23:00 +15°C° 0 mm 2 mps 764 mmHg 69%

    Tomorrow, 25 March, Saturday

    Time Temperature Precipitation Wind Pressure Humidity
    00:00 +15°C° 0 mm 2 mps 764 mmHg 70%
    01:00 +15°C° 0 mm 2 mps 764 mmHg 70%
    02:00 +14°C° 0 mm 2 mps 764 mmHg 72%
    03:00 +14°C° 0 mm 2 mps 764 mmHg 73%
    04:00 +14°C° 0 mm 2 mps 764 mmHg 75%
    05:00 +15°C° 0 mm 2 mps 764 mmHg 73%
    06:00 +16°C° 0 mm 2 mps 764 mmHg 70%
    07:00 +18°C° 0 mm 2 mps 764 mmHg 67%
    08:00 +20°C° 0 mm 2 mps 764 mmHg 60%
    09:00 +23°C° 0 mm 2 mps 764 mmHg 53%
    10:00 +25°C° 0 mm 2 mps 764 mmHg 46%
    11:00 +25°C° 0 mm 3 mps 764 mmHg 46%
    12:00 +25°C° 0 mm 3 mps 764 mmHg 46%
    13:00 +26°C° 0 mm 4 mps 763 mmHg 45%
    14:00 +25°C° 0 mm 4 mps 763 mmHg 48%
    15:00 +23°C° 0 mm 4 mps 763 mmHg 51%
    16:00 +22°C° 0 mm 4 mps 762 mmHg 54%
    17:00 +20°C° 0 mm 3 mps 763 mmHg 64%
    18:00 +17°C° 0 mm 3 mps 763 mmHg 74%
    19:00 +15°C° 0 mm 2 mps 763 mmHg 85%
    20:00 +15°C° 0 mm 2 mps 763 mmHg 85%
    21:00 +14°C° 0 mm 1 mps 763 mmHg 86%
    22:00 +14°C° 0 mm 1 mps 763 mmHg 87%
    23:00 +13°C° 0 mm 1 mps 763 mmHg 87%

    Day after tomorrow, 26 March, Sunday

    Time Temperature Precipitation Wind Pressure Humidity
    00:00 +13°C° 0 mm 1 mps 763 mmHg 87%
    01:00 +13°C° 0 mm 1 mps 762 mmHg 86%
    02:00 +12°C° 0 mm 1 mps 762 mmHg 87%
    03:00 +12°C° 0 mm 1 mps 762 mmHg 87%
    04:00 +12°C° 0 mm 1 mps 762 mmHg 87%
    05:00 +13°C° 0 mm 1 mps 761 mmHg 82%
    06:00 +14°C° 0 mm 1 mps 761 mmHg 76%
    07:00 +16°C° 0 mm 1 mps 761 mmHg 70%
    08:00 +19°C° 0 mm 1 mps 761 mmHg 63%
    09:00 +19°C° 0 mm 2 mps 761 mmHg 56%
    10:00 +21°C° 0 mm 2 mps 761 mmHg 49%
    11:00 +21°C° 0 mm 2 mps 760 mmHg 50%
    12:00 +21°C° 0 mm 3 mps 760 mmHg 51%
    13:00 +21°C° 0 mm 3 mps 759 mmHg 51%
    14:00 +21°C° 0.1 mm 3 mps 759 mmHg 55%
    15:00 +20°C° 0.1 mm 3 mps 758 mmHg 58%
    16:00 +19°C° 0.1 mm 3 mps 758 mmHg 61%
    17:00 +17°C° 0 mm 3 mps 758 mmHg 69%
    18:00 +15°C° 0 mm 4 mps 758 mmHg 77%
    19:00 +13°C° 0 mm 4 mps 758 mmHg 85%
    20:00 +12°C° 0.2 mm 5 mps 758 mmHg 87%
    21:00 +12°C° 0.2 mm 5 mps 758 mmHg 90%
    22:00 +11°C° 0.2 mm 6 mps 758 mmHg 92%
    23:00 +12°C° 0.4 mm 5 mps 758 mmHg 92%

    27 March, Monday

    Time Temperature Precipitation Wind Pressure Humidity
    00:00 +12°C° 0.4 mm 5 mps 758 mmHg 93%
    01:00 +12°C° 0.4 mm 5 mps 758 mmHg 93%
    02:00 +12°C° 0.5 mm 5 mps 758 mmHg 91%
    03:00 +11°C° 0.5 mm 6 mps 758 mmHg 90%
    04:00 +10°C° 0.5 mm 6 mps 758 mmHg 89%
    05:00 +10°C° 0.4 mm 6 mps 758 mmHg 87%
    06:00 +10°C° 0.4 mm 6 mps 758 mmHg 85%
    07:00 +10°C° 0.4 mm 7 mps 758 mmHg 82%
    08:00 +10°C° 0.8 mm 7 mps 758 mmHg 80%
    09:00 +10°C° 0.8 mm 7 mps 759 mmHg 77%
    10:00 +10°C° 0.8 mm 8 mps 759 mmHg 74%
    11:00 +11°C° 0.3 mm 7 mps 759 mmHg 72%
    12:00 +12°C° 0.3 mm 7 mps 759 mmHg 69%
    13:00 +13°C° 0.3 mm 6 mps 759 mmHg 67%
    14:00 +14°C° 0.1 mm 6 mps 759 mmHg 66%
    15:00 +14°C° 0.1 mm 6 mps 759 mmHg 66%
    16:00 +14°C° 0.1 mm 6 mps 759 mmHg 65%
    17:00 +13°C° 0 mm 6 mps 760 mmHg 68%
    18:00 +11°C° 0 mm 6 mps 761 mmHg 72%
    19:00 +10°C° 0 mm 6 mps 761 mmHg 75%
    20:00 +9°C° 0 mm 7 mps 762 mmHg 75%
    21:00 +9°C° 0 mm 7 mps 762 mmHg 74%
    22:00 +9°C° 0 mm 7 mps 763 mmHg 74%
    23:00 +8°C° 0 mm 7 mps 763 mmHg 74%

    28 March, Tuesday

    Time Temperature Precipitation Wind Pressure Humidity
    00:00 +8°C° 0 mm 7 mps 763 mmHg 74%
    01:00 +8°C° 0 mm 7 mps 764 mmHg 75%
    02:00 +7°C° 0 mm 6 mps 764 mmHg 75%
    03:00 +7°C° 0 mm 6 mps 764 mmHg 75%
    04:00 +7°C° 0 mm 6 mps 764 mmHg 75%
    05:00 +7°C° 0 mm 6 mps 765 mmHg 73%
    06:00 +8°C° 0 mm 6 mps 765 mmHg 71%
    07:00 +8°C° 0 mm 6 mps 766 mmHg 69%
    08:00 +10°C° 0 mm 5 mps 766 mmHg 61%
    09:00 +13°C° 0 mm 5 mps 766 mmHg 54%
    10:00 +15°C° 0 mm 5 mps 766 mmHg 46%
    11:00 +16°C° 0 mm 5 mps 766 mmHg 43%
    12:00 +17°C° 0 mm 5 mps 766 mmHg 39%
    13:00 +19°C° 0 mm 5 mps 765 mmHg 36%
    14:00 +19°C° 0 mm 5 mps 765 mmHg 38%
    15:00 +19°C° 0 mm 6 mps 765 mmHg 39%
    16:00 +19°C° 0 mm 6 mps 765 mmHg 41%
    17:00 +16°C° 0 mm 6 mps 765 mmHg 48%
    18:00 +14°C° 0 mm 6 mps 766 mmHg 56%
    19:00 +11°C° 0 mm 6 mps 766 mmHg 63%
    20:00 +10°C° 0 mm 6 mps 766 mmHg 63%
    21:00 +10°C° 0 mm 5 mps 767 mmHg 63%
    22:00 +9°C° 0 mm 5 mps 767 mmHg 63%
    23:00 +10°C° 0 mm 4 mps 767 mmHg 63%

    29 March, Wednesday

    Time Temperature Precipitation Wind Pressure Humidity
    00:00 +8°C° 0 mm 4 mps 767 mmHg 63%
    01:00 +8°C° 0 mm 4 mps 767 mmHg 63%
    02:00 +8°C° 0 mm 4 mps 767 mmHg 63%
    03:00 +8°C° 0 mm 3 mps 767 mmHg 62%
    04:00 +8°C° 0 mm 3 mps 767 mmHg 62%
    05:00 +9°C° 0 mm 3 mps 767 mmHg 60%
    06:00 +10°C° 0 mm 3 mps 767 mmHg 58%
    07:00 +11°C° 0 mm 3 mps 767 mmHg 56%
    08:00 +14°C° 0 mm 3 mps 767 mmHg 49%
    09:00 +17°C° 0 mm 3 mps 767 mmHg 42%
    10:00 +20°C° 0 mm 3 mps 767 mmHg 34%
    11:00 +21°C° 0 mm 3 mps 767 mmHg 33%
    12:00 +21°C° 0 mm 4 mps 767 mmHg 32%
    13:00 +22°C° 0 mm 4 mps 766 mmHg 31%
    14:00 +22°C° 0 mm 5 mps 766 mmHg 35%
    15:00 +21°C° 0 mm 5 mps 766 mmHg 39%
    16:00 +21°C° 0 mm 6 mps 766 mmHg 43%
    17:00 +17°C° 0 mm 6 mps 766 mmHg 52%
    18:00 +15°C° 0 mm 5 mps 766 mmHg 61%
    19:00 +12°C° 0 mm 5 mps 766 mmHg 70%
    20:00 +12°C° 0 mm 5 mps 767 mmHg 68%
    21:00 +12°C° 0 mm 4 mps 767 mmHg 66%
    22:00 +12°C° 0 mm 4 mps 767 mmHg 64%
    23:00 +11°C° 0 mm 4 mps 767 mmHg 63%
    Show more